Location: Unspecified
(0.0000°N, 0.0000°E)
Time: 04:29:46
(UTC+00:00)

Vanguard 1 - Pass Details

Date: 17 December 2023
Orbit: 653 x 3826 km, 34.3° (Epoch: 22 February)

Event Time Altitude Azimuth Distance (km) Brightness Sun altitude
Rises 01:34:07 0° 282° (WNW) 7,964 - -56.6°
Reaches altitude 10° 01:40:53 10° 273° (W) 6,846 - -55.4°
Exits shadow 01:57:32 31° 224° (SW) 4,474 13.2 -52.3°
Maximum altitude 01:58:52 32° 218° (SW) 4,366 13.2 -52.1°
Drops below altitude 10° 02:11:21 10° 159° (SSE) 4,720 13.9 -49.7°
Sets 02:15:01 0° 148° (SSE) 5,298 14.4 -48.9°
